Weather History for KELP - September, 2014

Change the Weather History Date:

Thursday, September 11, 2014

  Actual Average Record
Temperature  
Mean Temperature 76 °F 77 °F  
Max Temperature 83 °F 89 °F 99 °F (1974)
Min Temperature 68 °F 65 °F 47 °F (1894)
Degree Days  
Heating Degree Days 0 0  
Month to date heating degree days 0 0  
Since 1 July heating degree days 0 0  
Cooling Degree Days 11 12  
Month to date cooling degree days 161 146  
Year to date cooling degree days 2380 2075  
Growing Degree Days 25 (Base 50)    
Moisture  
Dew Point 54 °F    
Average Humidity 49    
Maximum Humidity 68    
Minimum Humidity 30    
Precipitation  
Precipitation T in 0.06 in 1.96 in (1958)
Month to date precipitation 0.47 0.60  
Year to date precipitation 3.60 6.92  
Snow  
Snow 0.00 in - - ()
Month to date snowfall 0.0  
Since 1 July snowfall 0.0  
Since 1 September snowfall 0.0  
Snow Depth 0.00 in    
Sea Level Pressure  
Sea Level Pressure 29.84 in    
Wind  
Wind Speed 7 mph (SSE)    
Max Wind Speed 16 mph    
Max Gust Speed 21 mph    
Visibility 10 miles    
Events Rain    
T = Trace of Precipitation, MM = Missing Value Source: NWS Daily Summary

Daily Weather History Graph

Daily Weather History Graph

Search for Another Location

Airport or City:

Trip Planner

Search our weather history database for the weather conditions in past years. The results will help you decide how hot, cold, wet, or windy it might be!

Date:

Astronomy

Sep. 11, 2014 Rise Set
Actual Time 6:47 AM MDT 7:16 PM MDT
Civil Twilight 6:22 AM MDT 7:41 PM MDT
Nautical Twilight 5:53 AM MDT 8:09 PM MDT
Astronomical Twilight 5:24 AM MDT 8:38 PM MDT
Moon 9:11 PM MDT (9/11) 9:34 AM MDT (9/11)
Length of Visible Light 13h 18m
Length of Day
12h 29m
Waning Gibbous, 90% of the Moon is Illuminated
Sep 11
Waning Gibbous
Sep 15
Last Quarter
Sep 24
New
Oct 1
First Quarter
Oct 8
Full

Hourly Weather History & Observations

Time (MDT) Temp. Heat Index Dew Point Humidity Pressure Visibility Wind Dir Wind Speed Gust Speed Precip Events Conditions
12:51 AM 78.1 °F - 45.0 °F 31% 29.78 in 10.0 mi Calm Calm - N/A   Partly Cloudy
1:51 AM 73.9 °F - 48.0 °F 40% 29.78 in 10.0 mi SW 3.5 mph - N/A   Partly Cloudy
2:51 AM 70.0 °F - 52.0 °F 53% 29.78 in 10.0 mi East 6.9 mph - N/A   Partly Cloudy
3:51 AM 71.1 °F - 50.0 °F 47% 29.78 in 10.0 mi SE 6.9 mph - N/A   Scattered Clouds
4:51 AM 70.0 °F - 48.9 °F 47% 29.79 in 10.0 mi Calm Calm - N/A   Mostly Cloudy
5:51 AM 68.0 °F - 48.9 °F 50% 29.81 in 10.0 mi ENE 8.1 mph - N/A   Mostly Cloudy
6:51 AM 70.0 °F - 48.9 °F 47% 29.82 in 10.0 mi NNW 6.9 mph - N/A   Mostly Cloudy
7:51 AM 72.0 °F - 48.9 °F 44% 29.84 in 10.0 mi ENE 4.6 mph - N/A   Mostly Cloudy
8:51 AM 73.9 °F - 50.0 °F 43% 29.85 in 10.0 mi Calm Calm - N/A   Overcast
9:51 AM 75.0 °F - 53.1 °F 46% 29.86 in 10.0 mi West 3.5 mph - N/A   Mostly Cloudy
10:51 AM 77.0 °F - 57.9 °F 52% 29.88 in 10.0 mi Calm Calm - N/A   Mostly Cloudy
11:51 AM 79.0 °F - 59.0 °F 50% 29.88 in 10.0 mi South 6.9 mph - N/A   Mostly Cloudy
12:51 PM 79.0 °F - 60.1 °F 52% 29.88 in 10.0 mi SSW 10.4 mph - N/A   Overcast
1:51 PM 81.0 °F 80.8 °F 55.9 °F 42% 29.86 in 10.0 mi SW 11.5 mph - N/A   Overcast
2:51 PM 82.9 °F 82.0 °F 55.0 °F 38% 29.84 in 10.0 mi SW 11.5 mph 18.4 mph 0.00 in Rain Light Rain
3:51 PM 81.0 °F 80.5 °F 54.0 °F 39% 29.83 in 10.0 mi SSE 8.1 mph - 0.00 in   Mostly Cloudy
4:51 PM 82.0 °F 81.4 °F 55.0 °F 39% 29.82 in 10.0 mi SE 11.5 mph - N/A   Mostly Cloudy
5:51 PM 80.1 °F 80.1 °F 55.0 °F 42% 29.83 in 10.0 mi East 13.8 mph - N/A   Mostly Cloudy
6:51 PM 78.1 °F - 54.0 °F 43% 29.83 in 10.0 mi East 9.2 mph - N/A   Mostly Cloudy
7:51 PM 75.9 °F - 57.0 °F 52% 29.85 in 10.0 mi SE 8.1 mph - N/A   Mostly Cloudy
8:51 PM 71.1 °F - 57.9 °F 63% 29.87 in 10.0 mi ESE 9.2 mph - N/A   Scattered Clouds
9:51 PM 73.9 °F - 60.1 °F 62% 29.88 in 10.0 mi SSE 5.8 mph - N/A   Mostly Cloudy
10:51 PM 72.0 °F - 60.1 °F 66% 29.88 in 10.0 mi SSE 5.8 mph - N/A   Mostly Cloudy
11:51 PM 72.0 °F - 59.0 °F 64% 29.88 in 10.0 mi SE 9.2 mph - N/A   Mostly Cloudy